User: anonymous   Login
Location: Caltech
(34.1382°N, 118.1253°W)
Time: 21:18:14
(UTC-07:00)
Language:

Iridium 75 - Orbit

View from above orbital plane
View from above orbital plane
View from above satellite
View from above satellite

Ground track
Ground track

The orbit data is extracted from the following two-line orbital elements,

1 25346U 98032E   16206.57817133  .00000017  00000-0 -91908-6 0  9994
2 25346  86.3969   1.0619 0002193  90.5958 321.4159 14.34212919952716
Epoch (UTC): 24 July 2016 13:52:34
Eccentricity: 0.0002193
inclination: 86.3969°
perigee height: 776 km
apogee height: 779 km
right ascension of ascending node: 1.0619°
argument of perigee: 90.5958°
revolutions per day: 14.34212919
mean anomaly at epoch: 321.4159°
orbit number at epoch: 95271

The dashed part of the orbit path shows where the satellite is in the earth's shadow,  

DLR